Regional Weather Roundup
Issued by NWS

Home | Current Version | Previous Version | Text Only | Print | Product List | Glossary On
Versions: 1 2 3 4 5 6 7 8 9 10 11 12 13 14 15 16 17 18 19 20 21 22 23 24 25 26 27 28 29 30 31 32 33 34 35 36 37 38 39 40 41 42 43 44 45 46 47 48 49 50
000
ASUS43 KMKX 101521
RWRWI

WISCONSIN REGIONAL WEATHER ROUNDUP
NATIONAL WEATHER SERVICE MILWAUKEE/SULLIVAN WI
900 AM CST SAT DEC 10 2016

NOTE: "FAIR" INDICATES FEW OR NO CLOUDS BELOW 12,000 FEET WITH NO
SIGNIFICANT WEATHER AND/OR OBSTRUCTIONS TO VISIBILITY.

WIZ001-002-006>008-014>016-023>028-101600-
NORTHWEST WISCONSIN

CITY           SKY/WX    TMP DP  RH WIND       PRES   REMARKS
SUPERIOR ARPT  CLOUDY     6  -3  66 NW7       30.49S WCI  -6
ASHLAND        CLEAR      5   2  87 SW5       30.47R WCI  -4
HAYWARD        CLOUDY     8  -2  63 CALM      30.43S
SIREN          CLOUDY     8   3  78 SW9       30.45S WCI  -5
CUMBERLAND     CLOUDY     9   3  78 W8        30.43S WCI  -4
RICE LAKE      CLOUDY     9   4  78 SW5       30.46S WCI   1
CHETEK         CLOUDY     8   3  79 SW5       30.46S WCI   0
LADYSMITH      CLOUDY    10   1  67 NW5       30.44S WCI   2
EAU CLAIRE     MOSUNNY    9   2  73 W7        30.46F WCI  -2
MENOMONIE      CLOUDY    10   2  71 SW5       30.47F WCI   2
NEW RICHMOND   SUNNY      5   0  79 CALM      30.46F
OSCEOLA        PTCLDY     6   2  80 NW5       30.50F WCI  -2
$$

WIZ003>005-009-010-017-018-101600-
NORTH CENTRAL WISCONSIN

CITY           SKY/WX    TMP DP  RH WIND       PRES   REMARKS
MANITOWISH WTR SUNNY      1  -3  82 W6        30.36S WCI -10
ARBOR VITAE    SUNNY      6  -1  73 NW8       30.36S WCI  -7
WOODRUFF       SUNNY      6  -1  73 NW8       30.36S WCI  -7
RHINELANDER    PTSUNNY    7  -2  66 W7        30.37R WCI  -5
EAGLE RIVER    CLOUDY     5  -2  71 W7        30.34F WCI  -7
LAND O LAKES   FLURRIES   7   1  75 W6        30.35F WCI  -3
PHILLIPS       SUNNY      6  -3  66 W5        30.39R WCI  -3
TOMAHAWK       CLOUDY     5  -3  70 W3        30.40R
MEDFORD        CLOUDY     8  -1  67 NW8       30.40S WCI  -5
MERRILL        CLOUDY     9   1  69 N6        30.42R WCI  -1
$$

WIZ029-030-035-036-043>047-101600-
CENTRAL WISCONSIN

CITY           SKY/WX    TMP DP  RH WIND       PRES   REMARKS
WAUSAU         FLURRIES  10   2  69 NW12      30.41R WCI  -5
MOSINEE        FLURRIES  10   7  85 W8        30.42R WCI  -1
MARSHFIELD     CLOUDY    10   0  63 W7        30.42S WCI  -1
STEVENS POINT  CLOUDY    11   0  62 W7        30.44S WCI   0
WAUPACA        MOSUNNY   16   4  60 NW8       30.46S WCI   5
WAUTOMA        PTSUNNY   10   7  85 W10       30.48R WCI  -3
WISC RAPIDS    CLOUDY    11   7  84 W6        30.46S WCI   1
CAMP DOUGLAS   MOSUNNY   10   5  79 W9        30.48S WCI  -2
$$

WIZ011>013-019>022-031-037>040-048>050-101600-
NORTHEAST WISCONSIN

CITY           SKY/WX    TMP DP  RH WIND       PRES   REMARKS
ANTIGO         CLOUDY     8   1  73 NW8       30.38R WCI  -5
SHAWANO        CLOUDY    17   7  65 NW6       30.45R WCI   8
OCONTO         CLOUDY    14   3  60 NW6       30.44S WCI   5
STURGEON BAY   CLOUDY    15   5  64 NW14      30.43R WCI   0
GREEN BAY      SUNNY     19   6  57 W10       30.45R WCI   7
MANITOWOC      SUNNY     17  10  74 W12       30.46R WCI   4
APPLETON       MOSUNNY   14   1  57 W14       30.43R WCI  -1
CLINTONVILLE   CLOUDY    14   3  62 W8        30.45R WCI   3
OSHKOSH        SUNNY     14   8  77 W8        30.46R WCI   3
$$

WIZ032>034-041-042-053>061-101600-
SOUTHWEST WISCONSIN

CITY           SKY/WX    TMP DP  RH WIND       PRES   REMARKS
LA CROSSE      CLOUDY    11   5  77 NW3       30.50F
SPARTA         SUNNY     10   7  87 CALM      30.49F
VIROQUA        CLOUDY     7   3  84 W5        30.45S WCI  -2
BOSCOBEL       MOSUNNY   16   9  74 NW3       30.52S
PRAIRIE DU CHI CLOUDY    15   8  71 NW5       30.51F WCI   8
PLATTEVILLE    CLOUDY    17  15  93 W3        30.48F
$$

WIZ056-057-062-063-064-067-068-101600-
SOUTH CENTRAL WISCONSIN

CITY           SKY/WX    TMP DP  RH WIND       PRES   REMARKS
REEDSBURG      SUNNY     12   7  79 W7        30.48S WCI   1
BARABOO/DELLS  SUNNY     13   7  76 W7        30.47F WCI   3
LONE ROCK      CLOUDY    16   8  71 W7        30.50S WCI   6
MINERAL POINT  CLOUDY    16  14  93 W3        30.46S
MADISON        PTSUNNY   15   9  76 W8        30.48S WCI   4
MIDDLETON      MOSUNNY   16  11  81 W5        30.48F WCI   9
WATERTOWN      SUNNY     15  11  83 W7        30.48S WCI   6
MONROE         MOSUNNY   18  14  86 W7        30.47R WCI   8
JANESVILLE     MOSUNNY   18  14  86 W7        30.49F WCI   8
$$

WIZ051-052-058>065-066-070>072-101600-
SOUTHEAST WISCONSIN

CITY           SKY/WX    TMP DP  RH WIND       PRES   REMARKS
MILWAUKEE      FLURRIES  19  10  68 W10       30.50R WCI   7
WAUKESHA       PTSUNNY   16  10  79 W8        30.49R WCI   5
MILWAUKEE/TIMM PTSUNNY   18   9  68 W9G16     30.50R WCI   6
RACINE         MOSUNNY   18  11  74 W8        30.51R WCI   8
BURLINGTON     SUNNY     23  19  83 W9        30.49S WCI  13
KENOSHA        PTSUNNY   19  13  77 W12       30.50R WCI   7
FOND DU LAC    SUNNY     15   7  70 W8        30.47R WCI   4
SHEBOYGAN      SUNNY     16   9  74 W12       30.46R WCI   3
WEST BEND      MOSUNNY   16  10  79 W9G16     30.46S WCI   4
JUNEAU         SUNNY     13   9  82 W7        30.49R WCI   3
$$

LSZ147-162-101600-
LAKE SUPERIOR

STATION/POSITION TIME  TEMP    WIND        PRES    WAVE
                       AIR SEA DIR/SP/G            HT/PER
                 (UTC) (F)     (DEG/KT/KT) (MB)    (FT/S)
DEVILS ISLAND    1500    9     300/  7/  8 1032.7F
PORT WING        1430    9     300/ 11/ 16 1031.8S
SAXON HARBOR     1430    7     200/  6/  8 1031.2F
$$

LMZ867-665-643>646-101600-
LAKE MICHIGAN

STATION/POSITION TIME  TEMP    WIND        PRES    WAVE
                       AIR SEA DIR/SP/G            HT/PER
                 (UTC) (F)     (DEG/KT/KT) (MB)    (FT/S)
CHAMBERS ISLAND  1440   17     270/  7/ 17 1029.5R
NORTHPORT PIER   1456   17     280/ 12/ 20 1029.8R
SISTER BAY       1435   18     310/ 22/ 26   N/A
ALGOMA LAKESHORE 1436          330/  9/ 14   N/A
KEWAUNEE LAKESHO 1454   18     290/ 13/ 16 1029.8R
SHEBOYGAN LAKESH 1500   16     270/ 12/ 16 1032.8R
PORT WASHINGTON  1440   18     300/  5/ 10 1032.8R
KENOSHA   LAKESH 1500   18     270/ 11/ 15 1032.8
$$

TC  - TEMPERATURE IN CELSIUS
VSB - VISIBILITY IN STATUTE MILES
WCI - WIND CHILL INDEX
HX  - HEAT INDEX





USA.gov is the U.S. government's official web portal to all federal, state and local government web resources and services.